Content
SEND FEEDBACK

Daily
Averages
Monthly
Summary
United States of America

ASATDAS, GUAM


Home > North America > United States > Guam
Elevation: 612 feet     Latitude: 13 35N     Longitude: 144 56E

WEATHER
 
SELECT A DAY
Number of Records: 208,807;   Date Range: 1/1/95 - 7/7/14
 
SHARE

PRINT THIS DATA

[ ← Previous Day ]
WEATHER ALMANAC - JANUARY 25, 2013
[ Next Day → ]
[ °C ]   °F
Weather ElementAverageHighLow
Temperature77.9 °F82.9 °F (9:54 am)71.1 °F (5:54 am)
Dewpoint68.6 °F71.6 °F (2:33 pm)64.9 °F (3:54 am)
Humidity73.4 %84 % (5:54 am)58 % (9:54 am)
Barometer29.88 in29.94 in (8:54 am)29.83 in (2:54 pm)
Wind Speed10.5 mph17.3 mph (3:54 pm)
Wind Gust23 mph (3:54 pm)
Weather ElementAverage
Visibility10 mi
Wind DirectionENE (51.6 °)

Weather ElementTotal
Precipitation---
Cooling Degree Days12 (Base 65)
Growing Degree Days27 (Base 50)
Averaged from 25 records on January 25, 2013
WEATHER CONDITIONS BREAKOUT
WIND DIRECTION BREAKOUT
WEATHER BY HOUR - JANUARY 25, 2013
[ °C ]   °F
Local TimeTemperatureDewpointHumidityBarometerVisibilityWind DirectionWind SpeedGust SpeedPrecipitationEventsConditions
1:54 AM75.0 °F66.9 °F76 %29.90 in10.0 miNE (40°)5.8 mphMostly Cloudy
2:54 AM73.0 °F66.0 °F79 %29.88 in10.0 miNE (40°)5.8 mphPartly Cloudy
3:54 AM72.0 °F64.9 °F78 %29.88 in10.0 miNE (40°)6.9 mphClear
4:54 AM73.0 °F66.0 °F79 %29.89 in10.0 miNNE (20°)8.1 mphClear
5:54 AM71.1 °F66.0 °F84 %29.90 in10.0 miNE (50°)6.9 mphClear
6:54 AM72.0 °F64.9 °F78 %29.91 in10.0 miNE (50°)8.1 mphClear
7:54 AM75.0 °F66.9 °F76 %29.92 in10.0 miENE (60°)6.9 mphMostly Cloudy
8:54 AM80.1 °F68.0 °F67 %29.94 in10.0 miNNE (30°)6.9 mphMostly Cloudy
9:54 AM82.9 °F66.9 °F58 %29.94 in10.0 miNE (40°)11.5 mphMostly Cloudy
10:54 AM81.0 °F69.1 °F67 %29.92 in10.0 miNE (40°)11.5 mphOvercast
11:54 AM82.0 °F70.0 °F67 %29.89 in10.0 miNE (40°)11.5 mphOvercast
12:54 PM82.0 °F66.9 °F60 %29.87 in10.0 miNE (40°)12.7 mphOvercast
1:54 PM82.0 °F70.0 °F67 %29.84 in10.0 miNNE (20°)12.7 mph18.4 mphMostly Cloudy
2:33 PM80.6 °F71.6 °F74 %29.85 in10.0 miNorth (350°)10.4 mphMostly Cloudy
2:43 PM80.6 °F71.6 °F74 %29.85 in10.0 miNNE (30°)12.7 mph18.4 mphMostly Cloudy
2:54 PM82.9 °F68.0 °F60 %29.83 in10.0 miNE (40°)11.5 mphMostly Cloudy
3:54 PM82.0 °F70.0 °F67 %29.83 in10.0 miNE (40°)17.3 mph23.0 mphMostly Cloudy
4:54 PM80.1 °F71.1 °F74 %29.85 in10.0 miNorth (10°)11.5 mphMostly Cloudy
5:54 PM79.0 °F70.0 °F74 %29.85 in10.0 miNE (40°)13.8 mphScattered Clouds
6:54 PM77.0 °F70.0 °F79 %29.86 in10.0 miNE (50°)12.7 mphPartly Cloudy
7:54 PM77.0 °F70.0 °F79 %29.88 in10.0 miNE (40°)12.7 mphPartly Cloudy
8:54 PM75.9 °F70.0 °F82 %29.90 in10.0 miNE (40°)11.5 mphScattered Clouds
9:54 PM77.0 °F70.0 °F79 %29.91 in10.0 miNE (40°)13.8 mphMostly Cloudy
10:54 PM77.0 °F70.0 °F79 %29.91 in10.0 miNE (50°)9.2 mphOvercast
11:54 PM77.0 °F70.0 °F79 %29.90 in10.0 miNE (50°)10.4 mphMostly Cloudy
Hourly data recorded from PGUM, located miles away from Asatdas, Guam







STORIES FROM OUR PARTNERS